RADUGA 4 (10987 NORAD) Tracking and Keplerian Element Data

This shows tracking and keplerian element data for the satellite.

Feedback or suggestion? Click here.




ElementValue
Catalog10987
NameRADUGA 4
Epoch Orbit11459
Epoch Day33.83469318
Epoch Year2025
RAAN284.6309
Inclination6.055
Eccentricity0.0010906
Argument of Perigee21.3571
Mean Anonmoly169.6423
Mean Motion1.00305392
Decay Rate1.49E-06
L11 10987U 78073A 25033.83469318 .00000149 00000+0 00000+0 0 9997
L22 10987 6.0550 284.6309 0010906 21.3571 169.6423 1.00305392114594



Live tracking and technical data element details for RADUGA 4 (NORAD 10987). RADUGA 4 can be tracked NOW for your location showing map with azimuth and elevation plus other details from your city location.







IsCatalogInMostPopularTable: catalog: 10987, numindb: 326
Update: records affected: 1



GetName: 10987 RADUGA 4

Hit Count: updated at: Fri, 16 May 2025 11:47:50 GMT